| time (UTC) | temp C | wind direction | speed KPH | gust KPH | rain 1hr cm | rain 24hr cm | rain mn cm | humidity % | barometer mb |
| 20260506044304 | 8 | 345 | 4.8 | 11.3 | 0.03 | 0.15 | 0.13 | 94 | 1005.6 |
| 20260506043756 | 8 | 334 | 4.8 | 8.0 | 0.03 | 0.15 | 0.13 | 94 | 1005.7 |
| 20260506043245 | 8 | 316 | 6.4 | 14.5 | 0.03 | 0.15 | 0.13 | 94 | 1005.7 |
| 20260506042736 | 8 | 335 | 6.4 | 14.5 | 0.03 | 0.15 | 0.13 | 94 | 1005.6 |
| 20260506042229 | 8 | 328 | 6.4 | 12.9 | 0.03 | 0.15 | 0.13 | 94 | 1005.6 |
| 20260506041723 | 8 | 356 | 4.8 | 11.3 | 0.03 | 0.15 | 0.13 | 94 | 1005.6 |
| 20260506041604 | 8 | 12 | 4.8 | 12.9 | 0.03 | 0.15 | 0.13 | 94 | 1005.6 |
| 20260506041405 | 8 | 336 | 4.8 | 12.9 | 0.03 | 0.15 | 0.13 | 94 | 1005.6 |
| 20260506040255 | 8 | 356 | 4.8 | 9.7 | 0.03 | 0.15 | 0.13 | 94 | 1005.7 |
| 20260506035746 | 8 | 23 | 3.2 | 9.7 | 0.03 | 0.15 | 0.13 | 94 | 1005.6 |
| 20260506035236 | 8 | 352 | 4.8 | 9.7 | 0.03 | 0.15 | 0.13 | 94 | 1005.7 |
| 20260506034726 | 8 | 18 | 4.8 | 12.9 | 0.00 | 0.13 | 0.10 | 94 | 1005.8 |
| 20260506034722 | 8 | 338 | 4.8 | 11.3 | 0.00 | 0.13 | 0.10 | 94 | 1005.7 |
| 20260506034716 | 8 | 329 | 6.4 | 12.9 | 0.00 | 0.13 | 0.10 | 94 | 1005.7 |
| 20260506033309 | 8 | 324 | 4.8 | 11.3 | 0.00 | 0.13 | 0.10 | 94 | 1005.8 |
| 20260506032801 | 8 | 334 | 3.2 | 8.0 | 0.00 | 0.13 | 0.10 | 94 | 1005.8 |
| 20260506032252 | 8 | 316 | 4.8 | 11.3 | 0.00 | 0.13 | 0.10 | 94 | 1005.7 |
| 20260506031744 | 8 | 311 | 4.8 | 9.7 | 0.00 | 0.13 | 0.10 | 94 | 1005.8 |
| 20260506031237 | 8 | 6 | 3.2 | 12.9 | 0.00 | 0.13 | 0.10 | 94 | 1005.8 |
| 20260506030732 | 8 | 340 | 4.8 | 11.3 | 0.03 | 0.13 | 0.10 | 94 | 1005.9 |
| 20260506030222 | 8 | 322 | 4.8 | 12.9 | 0.03 | 0.13 | 0.10 | 94 | 1006.0 |
| 20260506025711 | 8 | 356 | 4.8 | 12.9 | 0.03 | 0.13 | 0.10 | 94 | 1006.1 |
| 20260506025306 | 8 | 351 | 3.2 | 12.9 | 0.03 | 0.13 | 0.10 | 94 | 1006.0 |
| 20260506024758 | 8 | 348 | 3.2 | 9.7 | 0.03 | 0.13 | 0.10 | 94 | 1006.0 |
| 20260506024250 | 8 | 342 | 3.2 | 8.0 | 0.03 | 0.13 | 0.10 | 94 | 1006.1 |
| 20260506024137 | 8 | 291 | 3.2 | 8.0 | 0.03 | 0.13 | 0.10 | 93 | 1006.1 |
| 20260506023531 | 8 | 347 | 4.8 | 11.3 | 0.03 | 0.13 | 0.10 | 93 | 1006.1 |
| 20260506023027 | 8 | 356 | 4.8 | 11.3 | 0.03 | 0.13 | 0.10 | 93 | 1006.1 |
| 20260506022216 | 8 | 325 | 3.2 | 12.9 | 0.03 | 0.13 | 0.10 | 93 | 1006.2 |
| 20260506021710 | 8 | 323 | 4.8 | 12.9 | 0.03 | 0.13 | 0.10 | 93 | 1006.1 |
| 20260506021205 | 8 | 342 | 4.8 | 12.9 | 0.03 | 0.15 | 0.10 | 93 | 1006.2 |
| 20260506020809 | 8 | 331 | 4.8 | 9.7 | 0.00 | 0.13 | 0.08 | 93 | 1006.2 |
| 20260506020246 | 8 | 330 | 4.8 | 9.7 | 0.00 | 0.13 | 0.08 | 93 | 1006.2 |
| 20260506020136 | 8 | 334 | 3.2 | 9.7 | 0.00 | 0.13 | 0.08 | 93 | 1006.2 |
| 20260506015228 | 8 | 352 | 3.2 | 14.5 | 0.03 | 0.13 | 0.08 | 93 | 1006.3 |
| 20260506014720 | 8 | 6 | 3.2 | 14.5 | 0.03 | 0.13 | 0.08 | 93 | 1006.3 |
| 20260506014211 | 8 | 341 | 3.2 | 8.0 | 0.03 | 0.13 | 0.08 | 93 | 1006.3 |
| 20260506013659 | 8 | 6 | 3.2 | 8.0 | 0.03 | 0.13 | 0.08 | 93 | 1006.3 |
| 20260506013654 | 8 | 320 | 3.2 | 11.3 | 0.03 | 0.13 | 0.08 | 93 | 1006.4 |
| 20260506012750 | 8 | 24 | 3.2 | 11.3 | 0.03 | 0.13 | 0.08 | 93 | 1006.4 |
| 20260506012240 | 8 | 356 | 4.8 | 9.7 | 0.03 | 0.13 | 0.08 | 93 | 1006.4 |
| 20260506011732 | 8 | 349 | 4.8 | 11.3 | 0.03 | 0.13 | 0.08 | 93 | 1006.4 |
| 20260506011526 | 8 | 30 | 3.2 | 11.3 | 0.03 | 0.13 | 0.08 | 93 | 1006.4 |
| 20260506010719 | 8 | 330 | 3.2 | 9.7 | 0.03 | 0.13 | 0.08 | 93 | 1006.5 |
| 20260506010211 | 8 | 346 | 4.8 | 9.7 | 0.03 | 0.13 | 0.08 | 93 | 1006.4 |
| 20260506005704 | 8 | 349 | 4.8 | 9.7 | 0.03 | 0.13 | 0.08 | 93 | 1006.5 |
| 20260506005456 | 8 | 310 | 4.8 | 11.3 | 0.00 | 0.13 | 0.08 | 93 | 1006.6 |
| 20260506005040 | 8 | 356 | 3.2 | 9.7 | 0.03 | 0.13 | 0.05 | 93 | 1006.7 |
| 20260506005036 | 8 | 36 | 3.2 | 11.3 | 0.03 | 0.13 | 0.05 | 93 | 1006.6 |
| 20260506004230 | 8 | 6 | 3.2 | 9.7 | 0.03 | 0.13 | 0.05 | 93 | 1006.7 |
| 20260506003729 | 8 | 324 | 3.2 | 8.0 | 0.03 | 0.13 | 0.05 | 93 | 1006.6 |
| 20260506002714 | 8 | 6 | 1.6 | 9.7 | 0.03 | 0.13 | 0.05 | 93 | 1006.7 |
| 20260506002205 | 8 | 339 | 3.2 | 6.4 | 0.03 | 0.13 | 0.05 | 93 | 1006.7 |
| 20260506001657 | 8 | 337 | 3.2 | 11.3 | 0.03 | 0.13 | 0.05 | 93 | 1006.7 |
| 20260506001151 | 8 | 337 | 3.2 | 11.3 | 0.03 | 0.13 | 0.05 | 93 | 1006.8 |
| 20260506000743 | 8 | 328 | 3.2 | 9.7 | 0.03 | 0.13 | 0.05 | 93 | 1006.8 |
| 20260506000235 | 8 | 341 | 4.8 | 9.7 | 0.05 | 0.13 | 0.05 | 93 | 1006.9 |
| 20260505235727 | 9 | 10 | 3.2 | 9.7 | 0.05 | 0.13 | 0.05 | 92 | 1006.9 |
| 20260505235221 | 9 | 339 | 1.6 | 6.4 | 0.05 | 0.13 | 0.05 | 92 | 1007.0 |
| 20260505235110 | 9 | 345 | 3.2 | 9.7 | 0.03 | 0.10 | 0.05 | 92 | 1007.0 |
| 20260505234205 | 9 | 335 | 3.2 | 9.7 | 0.03 | 0.10 | 0.05 | 92 | 1007.0 |
| 20260505233656 | 9 | 352 | 3.2 | 8.0 | 0.03 | 0.10 | 0.05 | 92 | 1007.1 |
| 20260505233151 | 9 | 345 | 3.2 | 11.3 | 0.03 | 0.10 | 0.05 | 92 | 1007.1 |
| 20260505232740 | 9 | 339 | 4.8 | 12.9 | 0.03 | 0.10 | 0.05 | 92 | 1007.1 |
| 20260505232230 | 9 | 315 | 3.2 | 12.9 | 0.05 | 0.10 | 0.05 | 92 | 1007.1 |
| 20260505231725 | 9 | 349 | 3.2 | 9.7 | 0.05 | 0.10 | 0.05 | 92 | 1007.2 |
| 20260505231217 | 9 | 10 | 3.2 | 9.7 | 0.05 | 0.10 | 0.05 | 91 | 1007.2 |
| 20260505230706 | 9 | 303 | 3.2 | 11.3 | 0.05 | 0.10 | 0.05 | 91 | 1007.2 |
| 20260505230159 | 9 | 10 | 4.8 | 11.3 | 0.03 | 0.08 | 0.03 | 91 | 1007.2 |
| 20260505225651 | 9 | 25 | 4.8 | 9.7 | 0.03 | 0.08 | 0.03 | 91 | 1007.2 |
| 20260505225145 | 9 | 327 | 3.2 | 9.7 | 0.03 | 0.08 | 0.03 | 91 | 1007.3 |
| 20260505224735 | 9 | 351 | 4.8 | 12.9 | 0.03 | 0.08 | 0.03 | 91 | 1007.3 |
| 20260505224227 | 9 | 350 | 4.8 | 12.9 | 0.03 | 0.08 | 0.03 | 91 | 1007.2 |
| 20260505223719 | 9 | 325 | 4.8 | 9.7 | 0.03 | 0.08 | 0.03 | 91 | 1007.3 |
| 20260505223216 | 10 | 10 | 3.2 | 9.7 | 0.03 | 0.10 | 0.03 | 90 | 1007.3 |
| 20260505222707 | 10 | 349 | 3.2 | 6.4 | 0.03 | 0.10 | 0.03 | 90 | 1007.3 |
| 20260505222500 | 10 | 339 | 3.2 | 8.0 | 0.00 | 0.08 | 0.00 | 90 | 1007.3 |
| 20260505221650 | 10 | 347 | 3.2 | 9.7 | 0.00 | 0.08 | 0.00 | 90 | 1007.3 |
| 20260505221143 | 10 | 10 | 4.8 | 11.3 | 0.00 | 0.08 | 0.00 | 89 | 1007.4 |
| 20260505221034 | 10 | 6 | 6.4 | 12.9 | 0.00 | 0.08 | 0.00 | 89 | 1007.4 |
| 20260505220221 | 10 | 346 | 6.4 | 12.9 | 0.00 | 0.08 | 0.00 | 89 | 1007.4 |
| 20260505215710 | 10 | 334 | 4.8 | 12.9 | 0.00 | 0.08 | 0.08 | 89 | 1007.4 |
| 20260505215201 | 10 | 346 | 6.4 | 14.5 | 0.00 | 0.08 | 0.08 | 89 | 1007.4 |
| 20260505214653 | 10 | 329 | 4.8 | 14.5 | 0.00 | 0.08 | 0.08 | 89 | 1007.5 |
| 20260505214148 | 10 | 6 | 3.2 | 8.0 | 0.00 | 0.10 | 0.08 | 89 | 1007.5 |
| 20260505213638 | 10 | 340 | 4.8 | 11.3 | 0.00 | 0.10 | 0.08 | 89 | 1007.5 |
| 20260505213228 | 10 | 336 | 4.8 | 11.3 | 0.00 | 0.10 | 0.08 | 89 | 1007.6 |
| 20260505212721 | 10 | 25 | 4.8 | 11.3 | 0.00 | 0.10 | 0.08 | 89 | 1007.6 |
| 20260505212307 | 10 | 6 | 4.8 | 11.3 | 0.00 | 0.13 | 0.08 | 89 | 1007.5 |
| 20260505212046 | 10 | 314 | 4.8 | 11.3 | 0.00 | 0.13 | 0.08 | 89 | 1007.6 |
| 20260505211253 | 10 | 6 | 6.4 | 14.5 | 0.00 | 0.13 | 0.08 | 89 | 1007.6 |
| 20260505211053 | 10 | 335 | 6.4 | 14.5 | 0.00 | 0.13 | 0.08 | 89 | 1007.6 |
| 20260505210231 | 10 | 349 | 4.8 | 12.9 | 0.00 | 0.13 | 0.08 | 89 | 1007.7 |
| 20260505210034 | 10 | 19 | 6.4 | 11.3 | 0.00 | 0.15 | 0.08 | 89 | 1007.8 |
| 20260505205315 | 10 | 332 | 6.4 | 14.5 | 0.00 | 0.15 | 0.08 | 89 | 1007.7 |
| 20260505205118 | 10 | 10 | 6.4 | 14.5 | 0.00 | 0.15 | 0.08 | 89 | 1007.7 |
| 20260505204259 | 10 | 1 | 4.8 | 14.5 | 0.00 | 0.15 | 0.08 | 89 | 1007.8 |
| 20260505203749 | 10 | 35 | 8.0 | 19.3 | 0.00 | 0.15 | 0.08 | 89 | 1007.8 |
| 20260505203242 | 10 | 18 | 8.0 | 19.3 | 0.00 | 0.15 | 0.08 | 89 | 1007.8 |
| 20260505202734 | 10 | 309 | 6.4 | 17.7 | 0.00 | 0.15 | 0.08 | 89 | 1007.8 |
| 20260505202226 | 10 | 18 | 4.8 | 16.1 | 0.00 | 0.15 | 0.08 | 89 | 1007.8 |
| 20260505201716 | 10 | 320 | 3.2 | 8.0 | 0.00 | 0.15 | 0.08 | 89 | 1007.8 |
| 20260505201300 | 10 | 334 | 4.8 | 12.9 | 0.00 | 0.15 | 0.08 | 89 | 1007.8 |
| 20260505200755 | 10 | 21 | 4.8 | 12.9 | 0.00 | 0.15 | 0.08 | 89 | 1007.7 |
| 20260505200248 | 10 | 348 | 4.8 | 9.7 | 0.00 | 0.15 | 0.08 | 89 | 1007.7 |
| 20260505195738 | 10 | 52 | 4.8 | 12.9 | 0.00 | 0.15 | 0.08 | 89 | 1007.7 |
| 20260505195230 | 10 | 6 | 6.4 | 12.9 | 0.00 | 0.15 | 0.08 | 89 | 1007.7 |
| 20260505194724 | 10 | 356 | 6.4 | 11.3 | 0.00 | 0.15 | 0.08 | 89 | 1007.6 |
| 20260505194213 | 10 | 349 | 4.8 | 11.3 | 0.00 | 0.15 | 0.08 | 89 | 1007.6 |
| 20260505194016 | 10 | 6 | 4.8 | 11.3 | 0.00 | 0.15 | 0.08 | 89 | 1007.5 |
| 20260505193911 | 10 | 17 | 3.2 | 12.9 | 0.00 | 0.15 | 0.08 | 89 | 1007.5 |
| 20260505192750 | 10 | 324 | 3.2 | 9.7 | 0.00 | 0.15 | 0.08 | 90 | 1007.4 |
| 20260505192743 | 10 | 351 | 4.8 | 12.9 | 0.00 | 0.15 | 0.08 | 89 | 1007.5 |
| 20260505192237 | 10 | 47 | 3.2 | 11.3 | 0.00 | 0.15 | 0.08 | 89 | 1007.4 |
| 20260505191833 | 10 | 347 | 3.2 | 11.3 | 0.00 | 0.15 | 0.08 | 90 | 1007.4 |
| 20260505190715 | 10 | 345 | 3.2 | 9.7 | 0.00 | 0.15 | 0.08 | 90 | 1007.4 |
| 20260505190207 | 10 | 322 | 4.8 | 11.3 | 0.00 | 0.15 | 0.08 | 90 | 1007.4 |
| 20260505185701 | 10 | 324 | 3.2 | 11.3 | 0.00 | 0.15 | 0.08 | 90 | 1007.3 |
| 20260505185250 | 10 | 350 | 3.2 | 6.4 | 0.00 | 0.15 | 0.08 | 89 | 1007.3 |
| 20260505184743 | 10 | 351 | 3.2 | 6.4 | 0.00 | 0.15 | 0.08 | 89 | 1007.3 |
| 20260505184233 | 10 | 348 | 3.2 | 8.0 | 0.00 | 0.15 | 0.08 | 89 | 1007.4 |
| 20260505183726 | 10 | 345 | 3.2 | 8.0 | 0.00 | 0.15 | 0.08 | 89 | 1007.4 |
| 20260505183223 | 10 | 30 | 3.2 | 8.0 | 0.00 | 0.15 | 0.08 | 89 | 1007.3 |
| 20260505182714 | 10 | 338 | 4.8 | 9.7 | 0.00 | 0.15 | 0.08 | 89 | 1007.3 |
| 20260505182207 | 10 | 346 | 4.8 | 9.7 | 0.00 | 0.15 | 0.08 | 89 | 1007.3 |
| 20260505182007 | 10 | 356 | 4.8 | 9.7 | 0.00 | 0.15 | 0.08 | 90 | 1007.3 |
| 20260505181246 | 10 | 349 | 4.8 | 9.7 | 0.00 | 0.15 | 0.08 | 89 | 1007.3 |
| 20260505180732 | 10 | 356 | 3.2 | 9.7 | 0.00 | 0.15 | 0.08 | 89 | 1007.4 |
| 20260505180227 | 10 | 18 | 3.2 | 11.3 | 0.00 | 0.15 | 0.08 | 90 | 1007.4 |
| 20260505175727 | 10 | 356 | 3.2 | 9.7 | 0.00 | 0.15 | 0.08 | 90 | 1007.4 |
| 20260505175720 | 10 | 326 | 4.8 | 11.3 | 0.00 | 0.15 | 0.08 | 90 | 1007.4 |
| 20260505174708 | 10 | 351 | 1.6 | 6.4 | 0.00 | 0.15 | 0.08 | 90 | 1007.4 |
| 20260505174203 | 10 | 6 | 1.6 | 8.0 | 0.00 | 0.15 | 0.08 | 90 | 1007.5 |
| 20260505173654 | 11 | 6 | 3.2 | 9.7 | 0.00 | 0.15 | 0.08 | 90 | 1007.4 |
| 20260505173148 | 10 | 350 | 4.8 | 11.3 | 0.00 | 0.15 | 0.08 | 90 | 1007.4 |
| 20260505172734 | 10 | 67 | 3.2 | 11.3 | 0.00 | 0.15 | 0.08 | 90 | 1007.4 |
| 20260505172223 | 11 | 319 | 4.8 | 11.3 | 0.00 | 0.15 | 0.08 | 90 | 1007.3 |
| 20260505171723 | 11 | 340 | 4.8 | 9.7 | 0.00 | 0.15 | 0.08 | 90 | 1007.3 |
| 20260505171715 | 11 | 348 | 4.8 | 11.3 | 0.00 | 0.15 | 0.08 | 90 | 1007.3 |
| 20260505170701 | 11 | 356 | 3.2 | 12.9 | 0.00 | 0.15 | 0.08 | 90 | 1007.4 |
| 20260505170154 | 11 | 324 | 4.8 | 12.9 | 0.00 | 0.15 | 0.08 | 90 | 1007.4 |
| 20260505165650 | 11 | 340 | 4.8 | 12.9 | 0.00 | 0.15 | 0.08 | 90 | 1007.4 |
| 20260505165144 | 11 | 20 | 4.8 | 12.9 | 0.00 | 0.15 | 0.08 | 90 | 1007.5 |
| 20260505164731 | 11 | 280 | 4.8 | 11.3 | 0.00 | 0.15 | 0.08 | 90 | 1007.5 |
| 20260505164223 | 11 | 319 | 4.8 | 12.9 | 0.00 | 0.15 | 0.08 | 90 | 1007.5 |
| 20260505163714 | 11 | 17 | 4.8 | 12.9 | 0.00 | 0.15 | 0.08 | 90 | 1007.5 |
| 20260505163204 | 11 | 351 | 3.2 | 9.7 | 0.00 | 0.15 | 0.08 | 90 | 1007.5 |
| 20260505162658 | 11 | 346 | 3.2 | 9.7 | 0.00 | 0.15 | 0.08 | 90 | 1007.5 |
| 20260505162150 | 11 | 356 | 3.2 | 9.7 | 0.00 | 0.15 | 0.08 | 90 | 1007.6 |
| 20260505161641 | 11 | 305 | 3.2 | 8.0 | 0.00 | 0.15 | 0.08 | 90 | 1007.6 |
| 20260505161136 | 11 | 6 | 4.8 | 11.3 | 0.00 | 0.15 | 0.08 | 90 | 1007.6 |
| 20260505160734 | 11 | 29 | 3.2 | 9.7 | 0.00 | 0.15 | 0.08 | 90 | 1007.7 |
| 20260505160630 | 11 | 342 | 4.8 | 11.3 | 0.00 | 0.15 | 0.08 | 89 | 1007.6 |
| 20260505153141 | 11 | 346 | 3.2 | 11.3 | 0.00 | 0.15 | 0.08 | 90 | 1007.8 |
| 20260505152627 | 11 | 42 | 4.8 | 12.9 | 0.00 | 0.15 | 0.08 | 90 | 1007.8 |
| 20260505152215 | 11 | 11 | 3.2 | 12.9 | 0.00 | 0.15 | 0.08 | 90 | 1007.9 |
| 20260505151705 | 11 | 328 | 3.2 | 9.7 | 0.00 | 0.15 | 0.08 | 90 | 1007.9 |
| 20260505151158 | 11 | 322 | 4.8 | 12.9 | 0.00 | 0.15 | 0.08 | 90 | 1007.9 |
| 20260505150650 | 11 | 351 | 4.8 | 12.9 | 0.00 | 0.15 | 0.08 | 90 | 1008.0 |
| 20260505150140 | 11 | 328 | 4.8 | 12.9 | 0.00 | 0.15 | 0.08 | 90 | 1008.0 |
| 20260505140614 | 10 | 28 | 4.8 | 12.9 | 0.00 | 0.15 | 0.08 | 91 | 1008.3 |
| 20260505130120 | 10 | 1 | 6.4 | 16.1 | 0.00 | 0.15 | 0.08 | 92 | 1008.7 |
| 20260505130113 | 10 | 338 | 6.4 | 16.1 | 0.00 | 0.15 | 0.08 | 92 | 1008.7 |
| 20260505124557 | 10 | 290 | 4.8 | 14.5 | 0.00 | 0.15 | 0.08 | 93 | 1008.8 |
| 20260505124036 | 10 | 336 | 4.8 | 12.9 | 0.00 | 0.15 | 0.08 | 93 | 1008.8 |
| 20260505123524 | 10 | 27 | 4.8 | 12.9 | 0.00 | 0.15 | 0.08 | 92 | 1008.8 |
| 20260505123117 | 10 | 13 | 4.8 | 11.3 | 0.00 | 0.15 | 0.08 | 92 | 1008.8 |
| 20260505122619 | 10 | 356 | 3.2 | 11.3 | 0.00 | 0.15 | 0.08 | 93 | 1008.8 |
| 20260505122058 | 10 | 27 | 3.2 | 12.9 | 0.00 | 0.15 | 0.08 | 93 | 1008.8 |
| 20260505121550 | 10 | 6 | 6.4 | 14.5 | 0.00 | 0.15 | 0.08 | 93 | 1008.8 |
| 20260505121039 | 10 | 12 | 6.4 | 17.7 | 0.00 | 0.15 | 0.08 | 93 | 1008.8 |
| 20260505120532 | 10 | 6 | 8.0 | 17.7 | 0.00 | 0.15 | 0.08 | 93 | 1008.8 |
| 20260505120020 | 10 | 337 | 9.7 | 19.3 | 0.00 | 0.15 | 0.08 | 93 | 1008.8 |
| 20260505115512 | 10 | 28 | 8.0 | 19.3 | 0.00 | 0.15 | 0.08 | 94 | 1008.8 |
| 20260505115008 | 10 | 356 | 6.4 | 19.3 | 0.00 | 0.15 | 0.08 | 94 | 1008.8 |
| 20260505114601 | 10 | 1 | 6.4 | 14.5 | 0.00 | 0.15 | 0.08 | 94 | 1008.9 |
| 20260505114555 | 10 | 349 | 6.4 | 19.3 | 0.00 | 0.15 | 0.08 | 94 | 1008.9 |
| 20260505113534 | 10 | 23 | 8.0 | 17.7 | 0.00 | 0.15 | 0.08 | 94 | 1008.9 |
| 20260505113026 | 10 | 6 | 8.0 | 17.7 | 0.00 | 0.15 | 0.08 | 93 | 1009.0 |
| 20260505112523 | 10 | 6 | 6.4 | 14.5 | 0.00 | 0.15 | 0.08 | 94 | 1009.1 |
| 20260505112518 | 10 | 346 | 6.4 | 16.1 | 0.00 | 0.15 | 0.08 | 94 | 1009.0 |
| 20260505111501 | 10 | 345 | 4.8 | 14.5 | 0.00 | 0.15 | 0.08 | 94 | 1009.1 |
| 20260505111050 | 10 | 339 | 4.8 | 11.3 | 0.00 | 0.15 | 0.08 | 94 | 1009.1 |
| 20260505110553 | 10 | 326 | 4.8 | 14.5 | 0.00 | 0.15 | 0.08 | 94 | 1009.2 |
| 20260505101509 | 9 | 42 | 4.8 | 12.9 | 0.00 | 0.15 | 0.08 | 94 | 1009.3 |
| 20260505101012 | 9 | 25 | 4.8 | 12.9 | 0.00 | 0.15 | 0.08 | 93 | 1009.3 |
| 20260505100449 | 9 | 343 | 4.8 | 12.9 | 0.00 | 0.15 | 0.08 | 93 | 1009.3 |
| 20260505095949 | 9 | 34 | 4.8 | 11.3 | 0.00 | 0.15 | 0.08 | 93 | 1009.4 |
| 20260505095540 | 9 | 13 | 6.4 | 12.9 | 0.00 | 0.15 | 0.08 | 93 | 1009.4 |
| 20260505095022 | 9 | 346 | 6.4 | 12.9 | 0.00 | 0.15 | 0.08 | 93 | 1009.4 |
| 20260505094512 | 9 | 6 | 4.8 | 12.9 | 0.00 | 0.15 | 0.08 | 94 | 1009.4 |
| 20260505094005 | 10 | 10 | 3.2 | 11.3 | 0.00 | 0.15 | 0.08 | 94 | 1009.4 |
| 20260505093455 | 10 | 339 | 3.2 | 11.3 | 0.00 | 0.15 | 0.08 | 94 | 1009.4 |
| 20260505092950 | 10 | 356 | 3.2 | 11.3 | 0.00 | 0.15 | 0.08 | 94 | 1009.4 |
| 20260505092946 | 10 | 347 | 1.6 | 8.0 | 0.00 | 0.15 | 0.08 | 94 | 1009.4 |
| 20260505092036 | 10 | 18 | 3.2 | 11.3 | 0.00 | 0.15 | 0.08 | 94 | 1009.4 |
| 20260505091922 | 10 | 337 | 3.2 | 9.7 | 0.00 | 0.15 | 0.08 | 94 | 1009.4 |
| 20260505091009 | 10 | 35 | 3.2 | 11.3 | 0.00 | 0.15 | 0.08 | 94 | 1009.4 |
| 20260505090500 | 9 | 339 | 4.8 | 11.3 | 0.00 | 0.15 | 0.08 | 94 | 1009.4 |
| 20260505085950 | 9 | 19 | 4.8 | 11.3 | 0.00 | 0.15 | 0.08 | 94 | 1009.4 |
| 20260505085442 | 9 | 343 | 4.8 | 11.3 | 0.00 | 0.15 | 0.08 | 94 | 1009.3 |
| 20260505084942 | 9 | 31 | 6.4 | 14.5 | 0.00 | 0.15 | 0.08 | 94 | 1009.3 |
| 20260505084932 | 9 | 332 | 6.4 | 14.5 | 0.00 | 0.15 | 0.08 | 94 | 1009.3 |
| 20260505084025 | 9 | 1 | 6.4 | 14.5 | 0.00 | 0.15 | 0.08 | 94 | 1009.3 |
| 20260505083515 | 9 | 1 | 6.4 | 16.1 | 0.00 | 0.15 | 0.08 | 94 | 1009.4 |
| 20260505083004 | 9 | 328 | 6.4 | 16.1 | 0.00 | 0.15 | 0.08 | 94 | 1009.4 |
| 20260505082859 | 9 | 12 | 6.4 | 12.9 | 0.00 | 0.15 | 0.08 | 94 | 1009.4 |
| 20260505081939 | 9 | 277 | 6.4 | 12.9 | 0.00 | 0.15 | 0.08 | 94 | 1009.3 |
| 20260505081537 | 10 | 345 | 8.0 | 16.1 | 0.00 | 0.15 | 0.08 | 94 | 1009.3 |
| 20260505081026 | 10 | 6 | 6.4 | 20.9 | 0.00 | 0.15 | 0.08 | 94 | 1009.3 |
| 20260505080516 | 10 | 351 | 6.4 | 20.9 | 0.00 | 0.15 | 0.08 | 94 | 1009.2 |
| 20260505080406 | 10 | 335 | 6.4 | 19.3 | 0.00 | 0.15 | 0.08 | 94 | 1009.3 |
| 20260505075502 | 10 | 335 | 6.4 | 11.3 | 0.00 | 0.15 | 0.08 | 94 | 1009.2 |
| 20260505074953 | 10 | 326 | 4.8 | 16.1 | 0.00 | 0.15 | 0.08 | 94 | 1009.3 |
| 20260505074437 | 10 | 341 | 6.4 | 16.1 | 0.00 | 0.15 | 0.08 | 94 | 1009.2 |
| 20260505073937 | 10 | 14 | 8.0 | 14.5 | 0.00 | 0.15 | 0.08 | 94 | 1009.2 |
| 20260505073525 | 10 | 347 | 6.4 | 12.9 | 0.00 | 0.15 | 0.08 | 94 | 1009.3 |
| 20260505073016 | 10 | 328 | 6.4 | 12.9 | 0.00 | 0.15 | 0.08 | 94 | 1009.2 |
| 20260505072509 | 10 | 1 | 6.4 | 12.9 | 0.00 | 0.18 | 0.08 | 94 | 1009.2 |
| 20260505072001 | 10 | 320 | 4.8 | 11.3 | 0.00 | 0.18 | 0.08 | 95 | 1009.2 |
| 20260505071449 | 10 | 1 | 4.8 | 12.9 | 0.00 | 0.18 | 0.08 | 95 | 1009.1 |
| 20260505070935 | 10 | 16 | 8.0 | 17.7 | 0.00 | 0.18 | 0.08 | 95 | 1009.2 |
| 20260505070433 | 10 | 344 | 6.4 | 17.7 | 0.00 | 0.18 | 0.08 | 95 | 1009.1 |
| 20260505070024 | 10 | 337 | 4.8 | 16.1 | 0.00 | 0.18 | 0.08 | 95 | 1009.2 |
| 20260505065512 | 10 | 345 | 4.8 | 16.1 | 0.00 | 0.18 | 0.08 | 95 | 1009.2 |
| 20260505065001 | 10 | 11 | 4.8 | 12.9 | 0.00 | 0.18 | 0.08 | 95 | 1009.3 |
| 20260505064453 | 10 | 6 | 6.4 | 16.1 | 0.00 | 0.18 | 0.08 | 95 | 1009.2 |
| 20260505063943 | 10 | 10 | 6.4 | 16.1 | 0.00 | 0.18 | 0.08 | 95 | 1009.3 |
| 20260505063431 | 10 | 52 | 6.4 | 16.1 | 0.00 | 0.18 | 0.08 | 95 | 1009.3 |
| 20260505063021 | 10 | 14 | 6.4 | 16.1 | 0.00 | 0.18 | 0.08 | 95 | 1009.4 |
| 20260505062913 | 10 | 356 | 4.8 | 11.3 | 0.00 | 0.18 | 0.08 | 95 | 1009.3 |
| 20260505062003 | 10 | 352 | 4.8 | 11.3 | 0.00 | 0.18 | 0.08 | 95 | 1009.3 |
| 20260505061851 | 10 | 1 | 3.2 | 11.3 | 0.00 | 0.18 | 0.08 | 95 | 1009.4 |
| 20260505060945 | 10 | 347 | 3.2 | 9.7 | 0.00 | 0.18 | 0.08 | 95 | 1009.4 |
| 20260505060433 | 10 | 345 | 3.2 | 9.7 | 0.00 | 0.18 | 0.08 | 95 | 1009.3 |
| 20260505060024 | 10 | 1 | 4.8 | 11.3 | 0.00 | 0.18 | 0.08 | 95 | 1009.3 |
| 20260505055513 | 10 | 348 | 6.4 | 14.5 | 0.00 | 0.18 | 0.08 | 95 | 1009.4 |
| 20260505055005 | 10 | 6 | 4.8 | 14.5 | 0.00 | 0.18 | 0.08 | 95 | 1009.4 |
| 20260505054506 | 10 | 343 | 4.8 | 12.9 | 0.03 | 0.18 | 0.08 | 95 | 1009.3 |
| 20260505053945 | 10 | 6 | 6.4 | 12.9 | 0.03 | 0.18 | 0.08 | 95 | 1009.2 |
| 20260505053437 | 10 | 356 | 6.4 | 12.9 | 0.03 | 0.18 | 0.08 | 95 | 1009.3 |
| 20260505052929 | 11 | 19 | 4.8 | 11.3 | 0.03 | 0.18 | 0.08 | 95 | 1009.3 |
| 20260505052520 | 11 | 1 | 4.8 | 14.5 | 0.03 | 0.18 | 0.08 | 95 | 1009.3 |
| 20260505052315 | 11 | 315 | 4.8 | 14.5 | 0.03 | 0.18 | 0.08 | 95 | 1009.2 |
| 20260505051504 | 11 | 6 | 4.8 | 12.9 | 0.03 | 0.18 | 0.08 | 95 | 1009.2 |
| 20260505050957 | 11 | 346 | 6.4 | 12.9 | 0.03 | 0.18 | 0.08 | 95 | 1009.2 |
| 20260505050448 | 11 | 21 | 6.4 | 12.9 | 0.03 | 0.18 | 0.08 | 95 | 1009.1 |